Skip Page Navigation
NASA JPL Caltech
NASA Logo - Jet Propulsion Laboratory + View the NASA Portal
+ Center for Near-Earth Object Studies
JPL Home Earth Solar System Stars & Galaxies Technology
JPL Solar System Dynamics
BODIES ORBITS EPHEMERIDES TOOLS PHYSICAL DATA DISCOVERY FAQ SITE MAP
JPL Small-Body Database Browser
Search: [ help ]  
245582 (2005 UZ352)
Classification: Main-belt Asteroid          SPK-ID: 2245582
Ephemeris | Orbit Diagram | Orbital Elements | Mission Design | Physical Parameters | Discovery Circumstances | Close-Approach Data ]

[ show orbit diagram ]
Orbital Elements at Epoch 2459000.5 (2020-May-31.0) TDB
Reference: JPL 8 (heliocentric ecliptic J2000)
 Element Value Uncertainty (1-sigma)   Units 
e .1084036945385443 6.218e-08  
a 3.020145295916748 4.816e-08 au
q 2.692750387796167 1.9667e-07 au
i 7.839919206985324 7.6646e-06 deg
node 277.6190477561671 7.3289e-05 deg
peri 152.8933630206467 9.4997e-05 deg
M 256.8895100995429 5.9683e-05 deg
tp 2459549.586203626995
(2021-Dec-01.08620363)
0.00032145 TDB
period 1917.079760716391
5.25
4.5855e-05
1.255e-07
d
yr
n .187785614024464 4.4917e-09 deg/d
Q 3.347540204037329 5.3381e-08 au
  Orbit Determination Parameters
   # obs. used (total)      251  
   data-arc span      6364 days (17.42 yr)  
   first obs. used      2000-11-20  
   last obs. used      2018-04-24  
   planetary ephem.      DE431  
   SB-pert. ephem.      SB431-N16  
   condition code      0  
   norm. resid. RMS      .62455  
   source      ORB  
   producer      Otto Matic  
   solution date      2018-Oct-04 09:40:35  

Additional Information
 Earth MOID = 1.71033 au 
 Jupiter MOID = 1.90775 au 
 T_jup = 3.223 
[ show covariance matrix ]

Ephemeris | Orbit Diagram | Orbital Elements | Mission Design | Physical Parameters | Discovery Circumstances | Close-Approach Data ]

Physical Parameter Table
Parameter Symbol Value Units Sigma Reference Notes
absolute magnitude H 15.6   n/a MPO348665  
diameter diameter 4.897 km 0.178 urn:nasa:pds:neowise_diameters_albedos::2.0[mainbelt] (http://adsabs.harvard.edu/abs/2011ApJ...741...68M)  
geometric albedo albedo 0.056   0.005 urn:nasa:pds:neowise_diameters_albedos::2.0[mainbelt] (http://adsabs.harvard.edu/abs/2011ApJ...741...68M)  

245582 (2005 UZ352)          Discovered 2005-Oct-29 by CSS at Catalina
Reference: 20100726/Numbers.arcLast Updated: 2010-07-28

[ show close-approach data ]
Ephemeris | Orbit Diagram | Orbital Elements | Mission Design | Physical Parameters | Discovery Circumstances | Close-Approach Data ]
ABOUT SSD CREDITS/AWARDS PRIVACY/COPYRIGHT GLOSSARY LINKS
FirstGov 2020-Aug-08 21:27 UT
(server date/time)  
NASA Home Page
Site Manager:   Ryan S. Park
Webmaster  Alan B. Chamberlin